Flag for U.S.A. Weather past 2 weeks in Nashville, Tennessee, U.S.A.

Now
88 °F

Broken clouds.


Feels Like: 93 °F
Forecast: 72 / 92 °F
Wind: 7 mph from Southeast

Location: Nashville International Airport

Current Time: Jul 22, 2014 at 6:13:44 PM

Latest Report: Jul 22, 2014 at 11:53 AM


Visibility: 10 mi

Pressure: 30.08 "Hg

Humidity: 55%

Dew point: 70 °F

Location of NashvilleLocation

Historic Weather in Nashville — Graph

°F

Nashville temperature yesterday

Maximum temperature yesterday: 91 °F (at 3:53 PM)
Minimum temperature yesterday: 66 °F (at 5:53 AM)
Average temperature yesterday: 79 °F

Past Weeks' High & Low Weather Summary

 TemperatureHumidityPressure
High94 °F (Jul 12, 1:53 PM)100% (Jul 19, 5:59 AM)30.18 "Hg (Jul 19, 5:59 AM)
Low57 °F (Jul 16, 5:53 AM)31% (Jul 10, 12:53 PM)29.86 "Hg (Jul 14, 4:53 PM)
Average77 °F68%30.02 "Hg
* Reported Jul 7 11:53 AM — Jul 22 11:53 AM, Nashville, Weather by CustomWeather, © 2014

Note: Actual official high and low records may vary slightly from our data, if they occured in-between our weather recording intervals... More about our weather records

Advertising

Nashville weather history for previous 24 hours

 ConditionsComfort  
Time TempWeatherWind HumidityBarometerVisibility
11:53 AM
Jul 22
88 °FBroken clouds.7 mph55%30.08 "Hg10 mi
10:53 AM85 °FBroken clouds.6 mph63%30.09 "Hg10 mi
9:53 AM84 °FBroken clouds.9 mph67%30.10 "Hg10 mi
8:53 AM81 °FScattered clouds.9 mph74%30.11 "Hg10 mi
7:53 AM77 °FScattered clouds.5 mph85%30.11 "Hg10 mi
6:53 AM73 °FScattered clouds.No wind94%30.09 "Hg10 mi
5:53 AM72 °FPassing clouds.No wind93%30.08 "Hg10 mi
4:53 AM72 °FPassing clouds.No wind93%30.06 "Hg10 mi
3:53 AM73 °FPassing clouds.No wind94%30.05 "Hg10 mi
2:53 AM74 °FPassing clouds.No wind91%30.04 "Hg10 mi
1:53 AM74 °FPassing clouds.No wind91%30.05 "Hg10 mi
12:53 AM75 °FPassing clouds.No wind88%30.04 "Hg10 mi
11:53 PM
Jul 21
76 °FPassing clouds.3 mph88%30.04 "Hg10 mi
10:53 PM77 °FPassing clouds.No wind85%30.05 "Hg10 mi
9:53 PM79 °FPassing clouds.No wind74%30.04 "Hg10 mi
8:53 PM80 °FPassing clouds.No wind71%30.03 "Hg10 mi
7:53 PM83 °FScattered clouds.No wind65%30.02 "Hg10 mi
6:53 PM85 °FScattered clouds.3 mph59%30.02 "Hg10 mi
Weather by CustomWeather, © 2014

See weather overviewHow to use our weather pages